Time,TemperatureF,DewpointF,PressureIn,WindDirection,WindDirectionDegrees,WindSpeedMPH,WindSpeedGustMPH,Humidity,HourlyPrecipIn,Conditions,Clouds,dailyrainin,SoftwareType,DateUTC
2013-03-03 00:13:00,32.0,22.0,29.80,WNW,289,10.0,13.0,67,0.00,,,0.00,weatherlink.com 1.10,2013-03-03 05:13:00,
2013-03-03 00:28:00,31.9,22.0,29.80,WNW,293,8.0,14.0,67,0.00,,,0.00,weatherlink.com 1.10,2013-03-03 05:28:00,
2013-03-03 00:43:00,31.9,22.0,29.80,WNW,285,10.0,15.0,67,0.00,,,0.00,weatherlink.com 1.10,2013-03-03 05:43:00,
2013-03-03 00:58:00,32.0,23.0,29.80,WNW,283,7.0,15.0,69,0.00,,,0.00,weatherlink.com 1.10,2013-03-03 05:58:00,
2013-03-03 01:13:00,31.9,22.0,29.80,WNW,289,9.0,13.0,68,0.00,,,0.00,weatherlink.com 1.10,2013-03-03 06:13:00,
2013-03-03 01:28:00,31.9,22.0,29.80,WNW,297,11.0,13.0,68,0.00,,,0.00,weatherlink.com 1.10,2013-03-03 06:28:00,
2013-03-03 01:43:00,32.1,22.0,29.80,West,281,9.0,17.0,67,0.00,,,0.00,weatherlink.com 1.10,2013-03-03 06:43:00,
2013-03-03 01:58:00,32.0,22.0,29.79,West,278,7.0,14.0,68,0.00,,,0.00,weatherlink.com 1.10,2013-03-03 06:58:00,
2013-03-03 02:13:00,31.8,22.0,29.79,WNW,289,8.0,15.0,67,0.00,,,0.00,weatherlink.com 1.10,2013-03-03 07:13:00,
2013-03-03 02:28:00,31.6,22.0,29.79,WNW,294,9.0,14.0,67,0.00,,,0.00,weatherlink.com 1.10,2013-03-03 07:28:00,
2013-03-03 02:43:00,31.5,22.0,29.78,WNW,293,7.0,15.0,69,0.00,,,0.00,weatherlink.com 1.10,2013-03-03 07:43:00,
2013-03-03 02:57:00,31.3,22.0,29.78,WNW,291,8.0,12.0,68,0.00,,,0.00,weatherlink.com 1.10,2013-03-03 07:57:00,
2013-03-03 03:13:00,31.2,22.0,29.78,WNW,285,8.0,11.0,70,0.00,,,0.00,weatherlink.com 1.10,2013-03-03 08:13:00,
2013-03-03 03:28:00,31.0,22.0,29.78,West,278,8.0,10.0,70,0.00,,,0.00,weatherlink.com 1.10,2013-03-03 08:28:00,
2013-03-03 03:58:00,31.0,22.0,29.78,WNW,284,6.0,12.0,69,0.00,,,0.00,weatherlink.com 1.10,2013-03-03 08:58:00,
2013-03-03 04:13:00,30.9,22.0,29.78,WNW,283,8.0,9.0,70,0.00,,,0.00,weatherlink.com 1.10,2013-03-03 09:13:00,
2013-03-03 04:28:00,30.9,22.0,29.79,WNW,295,4.0,10.0,70,0.00,,,0.00,weatherlink.com 1.10,2013-03-03 09:28:00,
2013-03-03 04:43:00,31.0,22.0,29.79,WNW,293,8.0,11.0,69,0.00,,,0.00,weatherlink.com 1.10,2013-03-03 09:43:00,
2013-03-03 04:58:00,31.7,21.0,29.79,NW,311,9.0,18.0,66,0.00,,,0.00,weatherlink.com 1.10,2013-03-03 09:58:00,
2013-03-03 05:13:00,32.1,21.0,29.79,WNW,284,15.0,18.0,65,0.00,,,0.00,weatherlink.com 1.10,2013-03-03 10:13:00,
2013-03-03 05:28:00,31.8,22.0,29.79,WNW,301,8.0,17.0,66,0.00,,,0.00,weatherlink.com 1.10,2013-03-03 10:28:00,
2013-03-03 05:43:00,31.6,21.0,29.80,WNW,295,6.0,13.0,66,0.00,,,0.00,weatherlink.com 1.10,2013-03-03 10:43:00,
2013-03-03 05:59:00,31.5,22.0,29.80,WNW,293,9.0,13.0,68,0.00,,,0.00,weatherlink.com 1.10,2013-03-03 10:59:00,
2013-03-03 06:14:00,31.6,22.0,29.80,WNW,283,7.0,12.0,68,0.00,,,0.00,weatherlink.com 1.10,2013-03-03 11:14:00,
2013-03-03 06:29:00,31.8,22.0,29.80,WNW,285,6.0,12.0,68,0.00,,,0.00,weatherlink.com 1.10,2013-03-03 11:29:00,
2013-03-03 06:44:00,32.0,22.0,29.80,WNW,301,9.0,12.0,68,0.00,,,0.00,weatherlink.com 1.10,2013-03-03 11:44:00,
2013-03-03 06:59:00,32.2,22.0,29.81,WNW,298,8.0,9.0,67,0.00,,,0.00,weatherlink.com 1.10,2013-03-03 11:59:00,
2013-03-03 07:14:00,32.4,21.0,29.81,NNW,340,8.0,14.0,63,0.00,,,0.00,weatherlink.com 1.10,2013-03-03 12:14:00,
2013-03-03 07:29:00,32.8,20.0,29.81,WNW,300,14.0,18.0,60,0.00,,,0.00,weatherlink.com 1.10,2013-03-03 12:29:00,
2013-03-03 07:44:00,32.8,20.0,29.81,WNW,296,10.0,17.0,60,0.00,,,0.00,weatherlink.com 1.10,2013-03-03 12:44:00,
2013-03-03 07:59:00,32.9,20.0,29.81,NW,315,11.0,16.0,60,0.00,,,0.00,weatherlink.com 1.10,2013-03-03 12:59:00,
2013-03-03 08:14:00,33.0,21.0,29.82,WNW,295,5.0,16.0,61,0.00,,,0.00,weatherlink.com 1.10,2013-03-03 13:14:00,
2013-03-03 08:29:00,33.2,21.0,29.81,WNW,294,7.0,18.0,60,0.00,,,0.00,weatherlink.com 1.10,2013-03-03 13:29:00,
2013-03-03 08:44:00,33.3,20.0,29.81,WNW,289,7.0,17.0,59,0.00,,,0.00,weatherlink.com 1.10,2013-03-03 13:44:00,
2013-03-03 08:59:00,33.5,21.0,29.81,WNW,294,9.0,16.0,60,0.00,,,0.00,weatherlink.com 1.10,2013-03-03 13:59:00,
2013-03-03 09:14:00,33.3,21.0,29.81,WNW,290,8.0,19.0,62,0.00,,,0.00,weatherlink.com 1.10,2013-03-03 14:14:00,
2013-03-03 09:29:00,33.3,21.0,29.81,WNW,297,13.0,18.0,62,0.00,,,0.00,weatherlink.com 1.10,2013-03-03 14:29:00,
2013-03-03 09:44:00,33.5,21.0,29.81,WNW,294,12.0,21.0,61,0.00,,,0.00,weatherlink.com 1.10,2013-03-03 14:44:00,
2013-03-03 09:59:00,33.7,21.0,29.80,NW,314,14.0,22.0,61,0.00,,,0.00,weatherlink.com 1.10,2013-03-03 14:59:00,
2013-03-03 10:14:00,33.9,22.0,29.80,NW,309,6.0,17.0,62,0.00,,,0.00,weatherlink.com 1.10,2013-03-03 15:14:00,
2013-03-03 10:29:00,34.0,21.0,29.80,NW,304,8.0,18.0,60,0.00,,,0.00,weatherlink.com 1.10,2013-03-03 15:29:00,
2013-03-03 10:44:00,34.2,21.0,29.80,WNW,294,10.0,21.0,60,0.00,,,0.00,weatherlink.com 1.10,2013-03-03 15:44:00,
2013-03-03 10:59:00,34.3,21.0,29.80,WNW,295,13.0,21.0,58,0.00,,,0.00,weatherlink.com 1.10,2013-03-03 15:59:00,
2013-03-03 11:14:00,34.4,21.0,29.80,WNW,291,12.0,19.0,58,0.00,,,0.00,weatherlink.com 1.10,2013-03-03 16:14:00,
2013-03-03 11:29:00,34.6,21.0,29.80,NW,304,10.0,19.0,58,0.00,,,0.00,weatherlink.com 1.10,2013-03-03 16:29:00,
2013-03-03 11:44:00,35.1,21.0,29.79,WNW,295,15.0,17.0,57,0.00,,,0.00,weatherlink.com 1.10,2013-03-03 16:44:00,
2013-03-03 11:59:00,35.1,21.0,29.80,WNW,302,13.0,22.0,58,0.00,,,0.00,weatherlink.com 1.10,2013-03-03 16:59:00,
2013-03-03 12:14:00,35.2,20.0,29.79,WNW,297,11.0,21.0,55,0.00,,,0.00,weatherlink.com 1.10,2013-03-03 17:14:00,
2013-03-03 12:29:00,35.6,21.0,29.78,WNW,292,6.0,17.0,55,0.00,,,0.00,weatherlink.com 1.10,2013-03-03 17:29:00,
2013-03-03 12:44:00,35.9,20.0,29.78,WNW,295,13.0,19.0,53,0.00,,,0.00,weatherlink.com 1.10,2013-03-03 17:44:00,
2013-03-03 12:59:00,36.2,20.0,29.77,WNW,296,6.0,20.0,52,0.00,,,0.00,weatherlink.com 1.10,2013-03-03 17:59:00,
2013-03-03 13:14:00,36.5,21.0,29.77,NW,325,10.0,18.0,53,0.00,,,0.00,weatherlink.com 1.10,2013-03-03 18:14:00,
2013-03-03 13:29:00,36.6,20.0,29.76,West,271,13.0,21.0,52,0.00,,,0.00,weatherlink.com 1.10,2013-03-03 18:29:00,
2013-03-03 13:44:00,36.8,21.0,29.75,WNW,290,17.0,22.0,53,0.00,,,0.00,weatherlink.com 1.10,2013-03-03 18:44:00,
2013-03-03 13:59:00,36.9,21.0,29.75,West,281,10.0,21.0,52,0.00,,,0.00,weatherlink.com 1.10,2013-03-03 18:59:00,
2013-03-03 14:14:00,37.2,21.0,29.75,NW,304,17.0,20.0,53,0.00,,,0.00,weatherlink.com 1.10,2013-03-03 19:14:00,
2013-03-03 14:29:00,37.1,22.0,29.75,WNW,289,15.0,24.0,54,0.00,,,0.00,weatherlink.com 1.10,2013-03-03 19:29:00,
2013-03-03 14:44:00,37.3,21.0,29.75,WNW,295,15.0,24.0,52,0.00,,,0.00,weatherlink.com 1.10,2013-03-03 19:44:00,
2013-03-03 14:59:00,37.6,22.0,29.75,NW,311,10.0,22.0,53,0.00,,,0.00,weatherlink.com 1.10,2013-03-03 19:59:00,
2013-03-03 15:14:00,37.7,21.0,29.75,WNW,294,14.0,22.0,52,0.00,,,0.00,weatherlink.com 1.10,2013-03-03 20:14:00,
2013-03-03 15:29:00,37.9,22.0,29.75,NW,318,10.0,17.0,52,0.00,,,0.00,weatherlink.com 1.10,2013-03-03 20:29:00,
2013-03-03 15:45:00,38.0,22.0,29.75,WNW,302,9.0,18.0,53,0.00,,,0.00,weatherlink.com 1.10,2013-03-03 20:45:00,
2013-03-03 16:00:00,38.5,23.0,29.75,NW,304,10.0,17.0,55,0.00,,,0.00,weatherlink.com 1.10,2013-03-03 21:00:00,
2013-03-03 16:15:00,38.7,22.0,29.75,NW,307,13.0,21.0,51,0.00,,,0.00,weatherlink.com 1.10,2013-03-03 21:15:00,
2013-03-03 16:30:00,38.5,22.0,29.75,WNW,290,16.0,20.0,51,0.00,,,0.00,weatherlink.com 1.10,2013-03-03 21:30:00,
2013-03-03 16:45:00,38.2,22.0,29.75,NW,309,16.0,19.0,52,0.00,,,0.00,weatherlink.com 1.10,2013-03-03 21:45:00,
2013-03-03 17:00:00,38.0,22.0,29.76,WNW,295,12.0,22.0,52,0.00,,,0.00,weatherlink.com 1.10,2013-03-03 22:00:00,
2013-03-03 17:15:00,38.0,22.0,29.77,WNW,289,15.0,21.0,52,0.00,,,0.00,weatherlink.com 1.10,2013-03-03 22:15:00,
2013-03-03 17:30:00,38.1,22.0,29.77,WNW,300,15.0,19.0,52,0.00,,,0.00,weatherlink.com 1.10,2013-03-03 22:30:00,
2013-03-03 17:45:00,37.8,21.0,29.77,NW,304,12.0,23.0,52,0.00,,,0.00,weatherlink.com 1.10,2013-03-03 22:45:00,
2013-03-03 18:00:00,37.7,21.0,29.78,WNW,300,10.0,21.0,52,0.00,,,0.00,weatherlink.com 1.10,2013-03-03 23:00:00,
2013-03-03 18:15:00,37.6,22.0,29.79,NW,304,10.0,20.0,53,0.00,,,0.00,weatherlink.com 1.10,2013-03-03 23:15:00,
2013-03-03 18:30:00,37.5,23.0,29.79,NW,312,11.0,22.0,55,0.00,,,0.00,weatherlink.com 1.10,2013-03-03 23:30:00,
2013-03-03 18:45:00,37.3,22.0,29.80,WNW,294,13.0,19.0,54,0.00,,,0.00,weatherlink.com 1.10,2013-03-03 23:45:00,
2013-03-03 19:00:00,37.2,22.0,29.81,WNW,287,8.0,15.0,54,0.00,,,0.00,weatherlink.com 1.10,2013-03-04 00:00:00,
2013-03-03 19:15:00,36.8,21.0,29.81,WNW,297,12.0,24.0,53,0.00,,,0.00,weatherlink.com 1.10,2013-03-04 00:15:00,
2013-03-03 19:30:00,36.7,21.0,29.82,WNW,295,14.0,24.0,53,0.00,,,0.00,weatherlink.com 1.10,2013-03-04 00:30:00,
2013-03-03 19:45:00,36.5,22.0,29.82,NW,307,6.0,16.0,55,0.00,,,0.00,weatherlink.com 1.10,2013-03-04 00:45:00,
2013-03-03 20:00:00,36.4,21.0,29.82,WNW,283,15.0,25.0,55,0.00,,,0.00,weatherlink.com 1.10,2013-03-04 01:00:00,
2013-03-03 20:15:00,36.2,21.0,29.83,NW,304,16.0,20.0,54,0.00,,,0.00,weatherlink.com 1.10,2013-03-04 01:15:00,
2013-03-03 20:30:00,36.0,21.0,29.83,WNW,287,8.0,16.0,55,0.00,,,0.00,weatherlink.com 1.10,2013-03-04 01:30:00,
2013-03-03 20:45:00,35.8,21.0,29.83,WNW,297,10.0,24.0,55,0.00,,,0.00,weatherlink.com 1.10,2013-03-04 01:45:00,
2013-03-03 21:00:00,35.4,21.0,29.84,WNW,296,10.0,23.0,55,0.00,,,0.00,weatherlink.com 1.10,2013-03-04 02:00:00,
2013-03-03 21:15:00,35.1,20.0,29.84,WNW,296,10.0,25.0,55,0.00,,,0.00,weatherlink.com 1.10,2013-03-04 02:15:00,
2013-03-03 21:30:00,34.8,20.0,29.84,WNW,294,16.0,23.0,56,0.00,,,0.00,weatherlink.com 1.10,2013-03-04 02:30:00,
2013-03-03 21:45:00,34.6,20.0,29.85,West,281,11.0,21.0,55,0.00,,,0.00,weatherlink.com 1.10,2013-03-04 02:45:00,
2013-03-03 22:00:00,34.5,21.0,29.85,WNW,293,10.0,16.0,57,0.00,,,0.00,weatherlink.com 1.10,2013-03-04 03:00:00,
2013-03-03 22:15:00,34.3,20.0,29.85,WNW,287,15.0,19.0,56,0.00,,,0.00,weatherlink.com 1.10,2013-03-04 03:15:00,
2013-03-03 22:30:00,34.1,20.0,29.85,WNW,285,16.0,19.0,57,0.00,,,0.00,weatherlink.com 1.10,2013-03-04 03:30:00,
2013-03-03 22:45:00,34.0,20.0,29.85,WNW,297,14.0,18.0,57,0.00,,,0.00,weatherlink.com 1.10,2013-03-04 03:45:00,
2013-03-03 23:00:00,33.8,20.0,29.85,NW,304,14.0,20.0,57,0.00,,,0.00,weatherlink.com 1.10,2013-03-04 04:00:00,
2013-03-03 23:15:00,33.7,20.0,29.86,WNW,296,15.0,20.0,58,0.00,,,0.00,weatherlink.com 1.10,2013-03-04 04:15:00,
2013-03-03 23:30:00,33.7,20.0,29.85,West,275,11.0,15.0,58,0.00,,,0.00,weatherlink.com 1.10,2013-03-04 04:30:00,
2013-03-03 23:45:00,33.6,20.0,29.85,WNW,295,10.0,21.0,58,0.00,,,0.00,weatherlink.com 1.10,2013-03-04 04:45:00,